TimeEDT,TemperatureF,Dew PointF,Humidity,Sea Level PressureIn,VisibilityMPH,Wind Direction,Wind SpeedMPH,Gust SpeedMPH,PrecipitationIn,Events,Conditions,WindDirDegrees,DateUTC
12:15 AM,53.6,53.6,100,30.08,10.0,Calm,Calm,-,N/A,,Clear,0,2012-10-06 04:15:00
12:35 AM,53.6,53.6,100,30.07,10.0,Calm,Calm,-,N/A,,Clear,0,2012-10-06 04:35:00
12:55 AM,53.6,53.6,100,30.07,7.0,Calm,Calm,-,N/A,,Clear,0,2012-10-06 04:55:00
1:15 AM,53.6,53.6,100,30.06,5.0,Calm,Calm,-,N/A,,Clear,0,2012-10-06 05:15:00
1:35 AM,53.6,53.6,100,30.06,7.0,Calm,Calm,-,N/A,,Clear,0,2012-10-06 05:35:00
1:55 AM,53.6,53.6,100,30.05,5.0,Calm,Calm,-,N/A,,Clear,0,2012-10-06 05:55:00
2:15 AM,53.6,53.6,100,30.04,7.0,Calm,Calm,-,N/A,,Clear,0,2012-10-06 06:15:00
2:35 AM,51.8,51.8,100,30.04,5.0,Calm,Calm,-,N/A,,Clear,0,2012-10-06 06:35:00
2:55 AM,53.6,53.6,100,30.03,5.0,Calm,Calm,-,N/A,,Clear,0,2012-10-06 06:55:00
3:15 AM,53.6,53.6,100,30.02,4.0,Calm,Calm,-,N/A,,Clear,0,2012-10-06 07:15:00
3:35 AM,53.6,53.6,100,30.02,4.0,Calm,Calm,-,N/A,,Clear,0,2012-10-06 07:35:00
3:55 AM,51.8,51.8,100,30.01,4.0,Calm,Calm,-,N/A,,Clear,0,2012-10-06 07:55:00
4:15 AM,53.6,53.6,100,30.01,3.0,Calm,Calm,-,N/A,,Clear,0,2012-10-06 08:15:00
4:35 AM,53.6,53.6,100,30.01,3.0,Calm,Calm,-,N/A,,Clear,0,2012-10-06 08:35:00
4:55 AM,53.6,53.6,100,30.01,4.0,Calm,Calm,-,N/A,,Clear,0,2012-10-06 08:55:00
5:15 AM,51.8,51.8,100,30.01,2.5,Calm,Calm,-,N/A,,Clear,0,2012-10-06 09:15:00
5:35 AM,51.8,51.8,100,30.00,4.0,Calm,Calm,-,N/A,,Clear,0,2012-10-06 09:35:00
5:55 AM,51.8,51.8,100,30.01,3.0,Calm,Calm,-,N/A,,Clear,0,2012-10-06 09:55:00
6:15 AM,51.8,51.8,100,30.01,2.0,Calm,Calm,-,N/A,,Clear,0,2012-10-06 10:15:00
6:35 AM,51.8,51.8,100,30.00,2.0,Calm,Calm,-,N/A,,Clear,0,2012-10-06 10:35:00
6:55 AM,51.8,51.8,100,30.01,5.0,Calm,Calm,-,N/A,,Clear,0,2012-10-06 10:55:00
7:15 AM,51.8,51.8,100,30.01,7.0,Calm,Calm,-,N/A,,Clear,0,2012-10-06 11:15:00
7:35 AM,53.6,53.6,100,30.00,3.0,Calm,Calm,-,N/A,,Scattered Clouds,0,2012-10-06 11:35:00
7:55 AM,53.6,53.6,100,30.01,5.0,Calm,Calm,-,N/A,,Clear,0,2012-10-06 11:55:00
8:15 AM,57.2,57.2,100,30.01,5.0,Calm,Calm,-,N/A,,Mostly Cloudy,0,2012-10-06 12:15:00
8:35 AM,59.0,59.0,100,30.01,7.0,Calm,Calm,-,N/A,,Overcast,0,2012-10-06 12:35:00
8:55 AM,59.0,59.0,100,30.02,10.0,Calm,Calm,-,N/A,,Mostly Cloudy,0,2012-10-06 12:55:00
9:15 AM,60.8,59.0,94,30.01,10.0,WSW,3.5,-,N/A,,Mostly Cloudy,240,2012-10-06 13:15:00
9:35 AM,60.8,59.0,94,30.00,10.0,Calm,Calm,-,N/A,,Overcast,0,2012-10-06 13:35:00
9:55 AM,62.6,60.8,94,29.99,10.0,Calm,Calm,-,N/A,,Scattered Clouds,0,2012-10-06 13:55:00
10:15 AM,64.4,60.8,88,29.99,10.0,WNW,3.5,-,N/A,,Clear,290,2012-10-06 14:15:00
10:35 AM,69.8,62.6,78,29.99,10.0,West,3.5,-,N/A,,Scattered Clouds,270,2012-10-06 14:35:00
10:55 AM,68.0,60.8,78,30.00,10.0,West,8.1,-,N/A,,Mostly Cloudy,270,2012-10-06 14:55:00
11:15 AM,66.2,60.8,83,30.01,10.0,West,4.6,-,N/A,,Overcast,280,2012-10-06 15:15:00
11:35 AM,66.2,60.8,83,30.00,10.0,West,5.8,-,N/A,,Overcast,280,2012-10-06 15:35:00
11:55 AM,68.0,60.8,78,30.01,10.0,WNW,9.2,-,N/A,,Overcast,300,2012-10-06 15:55:00
12:15 PM,66.2,60.8,83,30.02,10.0,WNW,10.4,17.3,N/A,,Overcast,300,2012-10-06 16:15:00
12:35 PM,64.4,60.8,88,30.03,10.0,WNW,13.8,20.7,N/A,,Overcast,300,2012-10-06 16:35:00
12:55 PM,62.6,59.0,88,30.04,10.0,NW,15.0,21.9,N/A,,Overcast,310,2012-10-06 16:55:00
1:15 PM,62.6,57.2,82,30.04,10.0,NW,10.4,-,N/A,,Mostly Cloudy,310,2012-10-06 17:15:00
1:35 PM,60.8,55.4,82,30.05,10.0,WNW,9.2,20.7,N/A,,Overcast,300,2012-10-06 17:35:00
1:55 PM,59.0,55.4,88,30.04,10.0,WNW,9.2,18.4,N/A,,Overcast,300,2012-10-06 17:55:00
2:15 PM,60.8,55.4,82,30.04,10.0,WNW,15.0,19.6,N/A,,Overcast,300,2012-10-06 18:15:00
2:35 PM,60.8,53.6,77,30.04,10.0,WNW,11.5,19.6,N/A,,Mostly Cloudy,300,2012-10-06 18:35:00
2:55 PM,59.0,53.6,82,30.05,10.0,WNW,9.2,-,N/A,,Mostly Cloudy,300,2012-10-06 18:55:00
3:15 PM,57.2,51.8,82,30.04,10.0,WNW,9.2,17.3,N/A,,Overcast,290,2012-10-06 19:15:00
3:35 PM,57.2,51.8,82,30.04,10.0,WNW,9.2,-,N/A,,Mostly Cloudy,300,2012-10-06 19:35:00
3:55 PM,57.2,51.8,82,30.04,10.0,WNW,4.6,-,N/A,,Overcast,290,2012-10-06 19:55:00
4:15 PM,57.2,51.8,82,30.04,10.0,WNW,8.1,-,N/A,,Overcast,290,2012-10-06 20:15:00
4:35 PM,59.0,51.8,77,30.04,10.0,West,8.1,-,N/A,,Scattered Clouds,280,2012-10-06 20:35:00
4:55 PM,59.0,51.8,77,30.04,10.0,WNW,6.9,17.3,N/A,,Clear,300,2012-10-06 20:55:00
5:15 PM,57.2,50.0,77,30.04,10.0,WNW,9.2,-,N/A,,Clear,300,2012-10-06 21:15:00
5:35 PM,57.2,50.0,77,30.05,10.0,WNW,4.6,-,N/A,,Clear,300,2012-10-06 21:35:00
5:55 PM,57.2,50.0,77,30.05,10.0,WNW,8.1,-,N/A,,Clear,290,2012-10-06 21:55:00
6:15 PM,57.2,50.0,77,30.05,10.0,NW,8.1,-,N/A,,Clear,310,2012-10-06 22:15:00
6:35 PM,55.4,50.0,82,30.05,10.0,WNW,6.9,-,N/A,,Clear,300,2012-10-06 22:35:00
7:15 PM,53.6,48.2,82,30.08,10.0,WNW,3.5,-,N/A,,Clear,290,2012-10-06 23:15:00
7:35 PM,53.6,48.2,82,30.09,10.0,Calm,Calm,-,N/A,,Scattered Clouds,0,2012-10-06 23:35:00
7:55 PM,51.8,48.2,88,30.09,10.0,WNW,3.5,-,N/A,,Scattered Clouds,300,2012-10-06 23:55:00
8:15 PM,51.8,48.2,88,30.10,10.0,NW,3.5,-,N/A,,Clear,310,2012-10-07 00:15:00
8:35 PM,50.0,48.2,94,30.10,10.0,NW,5.8,-,N/A,,Clear,310,2012-10-07 00:35:00
8:55 PM,50.0,46.4,87,30.10,10.0,NW,6.9,-,N/A,,Clear,310,2012-10-07 00:55:00
9:15 PM,50.0,46.4,87,30.10,10.0,NW,5.8,-,N/A,,Scattered Clouds,310,2012-10-07 01:15:00
9:35 PM,51.8,48.2,88,30.09,10.0,NNW,11.5,-,N/A,,Mostly Cloudy,340,2012-10-07 01:35:00
9:55 PM,51.8,46.4,82,30.10,10.0,West,3.5,-,N/A,,Overcast,270,2012-10-07 01:55:00
10:15 PM,51.8,46.4,82,30.10,10.0,NW,4.6,-,N/A,,Mostly Cloudy,310,2012-10-07 02:15:00
10:35 PM,48.2,46.4,93,30.10,10.0,Calm,Calm,-,N/A,,Mostly Cloudy,0,2012-10-07 02:35:00
10:55 PM,48.2,46.4,93,30.09,10.0,Calm,Calm,-,N/A,,Scattered Clouds,0,2012-10-07 02:55:00
11:15 PM,48.2,46.4,93,30.10,10.0,Calm,Calm,-,N/A,,Mostly Cloudy,0,2012-10-07 03:15:00
11:35 PM,48.2,46.4,93,30.09,10.0,Calm,Calm,-,N/A,,Overcast,0,2012-10-07 03:35:00
11:55 PM,50.0,46.4,87,30.08,10.0,Calm,Calm,-,N/A,,Overcast,0,2012-10-07 03:55:00